If you wish to contribute or participate in the discussions about articles you are invited to join SKYbrary as a registered user

 Actions

Salon-de-Provence (BA 701) Air Base

From SKYbrary Wiki

LFMY
Airport
ICAO: LFMY
Summary
Name Salon-de-Provence (BA 701) Air Base
Region Europe
Territory France FR.gif
Location , Provence-Alpes-Cote d'Azur
Serving Salon
Elevation 59.436 m
195 ft
195 ft59.436 m
Type medium airport
Coordinates 43° 36' 23.09" N, 5° 6' 33.30" E
Runways
Designator Length Width Surface ROPS
9/27 0 m0 ft
0 m0 ft
UNK /
16/34 2001 m6,564.961 ft
45 m147.638 ft
CON /
17L/35R 0 m0 ft
0 m0 ft
UNK /
17R/35L 0 m0 ft
0 m0 ft
UNK /


METAR
Observation LFMY 260030Z AUTO VRB02KT CAVOK 18/15 Q1017
Station Salon
Date/Time 26 August 2019 00:30:00
Wind direction °
Wind speed 02 kts
Lowest cloud amount clouds and visibility OK
Temperature 18°C
Dew point 15°C
Humidity 82%
QNH 1017 hPa
Weather condition n/a